Weather History for Truckee-Tahoe, CA

Change the Weather History Date:

Sunday, January 20, 2013

  Actual Average Record
Temperature  
Mean Temperature 16 °F -  
Max Temperature 35 °F 41 °F 58 °F (1986)
Min Temperature -2 °F 15 °F -4 °F (1973)
Degree Days  
Heating Degree Days 48    
Moisture  
Dew Point 5 °F    
Average Humidity 76    
Maximum Humidity 92    
Minimum Humidity 38    
Precipitation  
Precipitation 0.00 in - - ()
Sea Level Pressure  
Sea Level Pressure 30.39 in    
Wind  
Wind Speed 0 mph (SW)    
Max Wind Speed 5 mph    
Max Gust Speed -    
Visibility 8 miles    
Events Fog , Snow    
Averages and records for this station are not official NWS values.
T = Trace of Precipitation, MM = Missing Value Source: NWS Daily Summary

Daily Weather History Graph

Daily Weather History Graph

Search for Another Location

Airport:

Trip Planner

Search our weather history database for the weather conditions in past years. The results will help you decide how hot, cold, wet, or windy it might be!

Date:

Astronomy

Jan. 20, 2013 Rise Set
Actual Time 7:16 AM PST 5:07 PM PST
Civil Twilight 6:47 AM PST 5:36 PM PST
Nautical Twilight 6:14 AM PST 6:09 PM PST
Astronomical Twilight 5:42 AM PST 6:41 PM PST
Moon 12:11 PM PST (1/20) 1:53 AM PST (1/20)
Length of Visible Light 10h 49m
Length of Day
9h 51m
Waxing Gibbous, 67% of the Moon is Illuminated
Jan 20
Waxing Gibbous
Jan 26
Full
Feb 3
Last Quarter
Feb 9
New
Feb 17
First Quarter

Hourly Weather History & Observations

Time (PST) Temp. Windchill Dew Point Humidity Pressure Visibility Wind Dir Wind Speed Gust Speed Precip Events Conditions
12:15 AM 6.8 °F - 3.2 °F 85% 30.41 in 1.5 mi Calm Calm - N/A   Clear
12:35 AM 5.0 °F - -0.4 °F 78% 30.41 in 1.2 mi Calm Calm - N/A   Clear
12:55 AM 6.8 °F - 3.2 °F 85% 30.41 in 4.0 mi Calm Calm - N/A   Clear
1:15 AM 5.0 °F - 1.4 °F 85% 30.41 in 5.0 mi Calm Calm - N/A   Clear
1:35 AM 6.8 °F - 1.4 °F 79% 30.41 in 1.8 mi Calm Calm - N/A   Clear
1:55 AM 1.4 °F - -0.4 °F 92% 30.41 in 0.8 mi Calm Calm - N/A   Mist
2:15 AM 5.0 °F - -0.4 °F 78% 30.41 in 6.0 mi Calm Calm - N/A   Clear
2:35 AM 3.2 °F - -0.4 °F 85% 30.41 in 7.0 mi Calm Calm - N/A   Clear
2:55 AM -0.4 °F - -2.2 °F 92% 30.40 in 10.0 mi Calm Calm - N/A   Clear
3:15 AM 5.0 °F - -0.4 °F 78% 30.40 in 2.5 mi Calm Calm - N/A   Clear
3:35 AM -0.4 °F - -4.0 °F 85% 30.40 in 0.5 mi Calm Calm - N/A Fog Light Freezing Fog
3:55 AM -0.4 °F - -4.0 °F 85% 30.40 in 0.2 mi Calm Calm - N/A Fog Light Freezing Fog
4:15 AM -0.4 °F - -2.2 °F 92% 30.40 in 0.8 mi Calm Calm - N/A   Mist
4:35 AM -0.4 °F - -4.0 °F 85% 30.40 in 0.2 mi Calm Calm - N/A   Haze
4:55 AM -0.4 °F - -5.8 °F 78% 30.40 in 1.2 mi Calm Calm - N/A   Haze
5:15 AM -0.4 °F - -4.0 °F 85% 30.40 in 10.0 mi Calm Calm - N/A   Clear
5:35 AM -0.4 °F - -4.0 °F 85% 30.40 in 10.0 mi Calm Calm - N/A   Clear
6:55 AM -2.2 °F - -7.6 °F 78% 30.41 in 10.0 mi Calm Calm - N/A Fog Shallow Fog
7:55 AM -0.4 °F - -4.0 °F 85% 30.41 in 8.0 mi Calm Calm - N/A   Partly Cloudy
8:50 AM 1.4 °F - -2.2 °F 85% 30.43 in 10.0 mi Calm Calm - N/A   Clear
9:55 AM 6.8 °F - 3.2 °F 85% 30.44 in 10.0 mi Calm Calm - N/A   Clear
10:50 AM 12.2 °F - 8.6 °F 85% 30.42 in 10.0 mi Calm Calm - N/A   Clear
11:45 AM 17.6 °F - 14.0 °F 86% 30.40 in 10.0 mi Calm Calm - N/A   Clear
12:50 PM 26.6 °F - 8.6 °F 47% 30.36 in 10.0 mi Calm Calm - N/A   Clear
1:45 PM 28.4 °F - 12.2 °F 51% 30.34 in 10.0 mi Calm Calm - N/A   Clear
2:45 PM 32.0 °F - 15.8 °F 51% 30.33 in 10.0 mi Calm Calm - N/A   Clear
3:45 PM 35.6 °F - 12.2 °F 38% 30.33 in 10.0 mi Calm Calm - N/A   Clear
4:45 PM 32.0 °F - 10.4 °F 41% 30.34 in 10.0 mi Calm Calm - N/A   Clear
4:55 PM 32.0 °F - 10.4 °F 41% 30.34 in 10.0 mi Calm Calm - N/A   Clear
5:15 PM 28.4 °F - 12.2 °F 51% 30.34 in 10.0 mi Calm Calm - N/A   Clear
5:35 PM 23.0 °F - 10.4 °F 59% 30.34 in 10.0 mi Calm Calm - N/A   Clear
5:55 PM 24.8 °F - 10.4 °F 54% 30.35 in 10.0 mi Calm Calm - N/A   Clear
6:15 PM 19.4 °F - 10.4 °F 68% 30.36 in 10.0 mi Calm Calm - N/A Snow Light Snow
6:35 PM 23.0 °F - 12.2 °F 63% 30.36 in 10.0 mi Calm Calm - N/A Snow Light Snow
6:55 PM 19.4 °F - 10.4 °F 68% 30.37 in 10.0 mi Calm Calm - N/A Snow Light Snow
7:15 PM 17.6 °F - 10.4 °F 73% 30.37 in 10.0 mi Calm Calm - N/A   Clear
7:35 PM 19.4 °F - 10.4 °F 68% 30.37 in 10.0 mi Calm Calm - N/A   Clear
7:55 PM 14.0 °F 8.2 °F 8.6 °F 79% 30.38 in 10.0 mi South 3.5 mph - N/A   Clear
8:15 PM 15.8 °F - 10.4 °F 79% 30.38 in 10.0 mi Calm Calm - N/A   Clear
8:35 PM 15.8 °F - 10.4 °F 79% 30.38 in 10.0 mi Calm Calm - N/A   Clear
8:55 PM 14.0 °F - 8.6 °F 79% 30.38 in 10.0 mi Calm Calm - N/A   Clear
9:15 PM 10.4 °F 4.0 °F 6.8 °F 85% 30.39 in 10.0 mi WSW 3.5 mph - N/A   Clear
9:35 PM 15.8 °F - 8.6 °F 73% 30.39 in 10.0 mi Calm Calm - N/A   Clear
9:55 PM 14.0 °F - 8.6 °F 79% 30.39 in 10.0 mi Calm Calm - N/A   Clear
10:15 PM 10.4 °F - 6.8 °F 85% 30.39 in 10.0 mi Calm Calm - N/A   Clear
10:35 PM 10.4 °F - 8.6 °F 92% 30.39 in 10.0 mi Calm Calm - N/A   Clear
10:55 PM 10.4 °F - 8.6 °F 92% 30.39 in 10.0 mi Calm Calm - N/A   Clear
11:15 PM 6.8 °F -2.0 °F 5.0 °F 92% 30.38 in 8.0 mi SW 4.6 mph - N/A   Clear
11:35 PM 10.4 °F - 6.8 °F 85% 30.37 in 10.0 mi Calm Calm - N/A   Clear
11:55 PM 6.8 °F - 3.2 °F 85% 30.37 in 10.0 mi Calm Calm - N/A   Clear